This demonstration page uses our WeatherBlox Daily Observations layout. Learn more.

Hourly Observations for March 12, 2019

Temp ( °F °C ) Dew Point ( °F °C ) Humidity (%) Winds ( mph kmh ) Pressure ( in mb ) Visibility ( mi km ) Precip ( " mm )
12:15 am 00:15 Cloudy 38 3.3 34 0.9 84 84 SSE 13 20 30.22 1024 10 16.0934 0 0
12:35 am 00:35 Cloudy 38 3.5 34 1 84 84 SSE 12 19 30.21 1023 10 16.0934 0 0
12:55 am 00:55 Cloudy 38 3.6 33 0.7 82 82 SSE 12 19 30.2 1023 10 16.0934 0 0
1:15 am 01:15 Cloudy 38 3.2 33 0.7 84 84 SSE 13 20 30.19 1023 10 16.0934 0 0
1:35 am 01:35 Cloudy 37 3 33 0.7 85 85 SSE 13 20 30.2 1023 10 16.0934 0 0
1:55 am 01:55 Cloudy 38 3.2 33 0.7 84 84 SSE 12 19 30.19 1023 10 16.0934 0 0
2:15 am 02:15 Cloudy 37 3 33 0.7 85 85 SSE 10 17 30.19 1022 10 16.0934 0 0
2:35 am 02:35 Cloudy 37 3 34 0.9 86 86 SSE 9 15 30.18 1022 10 16.0934 0 0
2:55 am 02:55 Cloudy 37 3 34 0.9 86 86 SSE 9 15 30.17 1022 10 16.0934 0 0
3:15 am 03:15 Cloudy 37 3 34 1.1 87 87 SSE 9 15 30.16 1021 10 16.0934 0 0
3:35 am 03:35 Cloudy 37 3 34 1.3 89 89 SSE 10 17 30.16 1021 10 16.0934 0 0
3:55 am 03:55 Cloudy 38 3.1 35 1.5 89 89 SSE 8 13 30.14 1021 10 16.0934 0 0
4:15 am 04:15 Cloudy with Light Rain 37 2.8 35 1.6 92 92 SSE 7 11 30.13 1020 10 16.0934 0 0
4:35 am 04:35 Cloudy 37 3 36 2 93 93 S 10 17 30.12 1020 10 16.0934 0 0
4:55 am 04:55 Cloudy 38 3.6 37 2.5 93 93 SSE 13 20 30.08 1019 10 16.0934 0 0
5:15 am 05:15 Cloudy 38 3.4 37 2.5 94 94 S 13 20 30.08 1019 10 16.0934 0 0
5:35 am 05:35 Cloudy 38 3.5 37 2.9 96 96 S 14 22 30.08 1019 10 16.0934 0 0
5:55 am 05:55 Cloudy with Light Drizzle 38 3.5 37 3 97 97 S 13 20 30.07 1018 10 16.0934 0 0
6:15 am 06:15 Cloudy 38 3.5 38 3.2 98 98 SSE 10 17 30.07 1018 7 11.26538 0 0
6:35 am 06:35 Cloudy with Mist and Fog 38 3.2 38 3.1 99 99 S 10 17 30.07 1018 2.5 4.02335 0 0
6:55 am 06:55 Cloudy with Drizzle 37 3 37 3 100 100 SSE 13 20 30.07 1018 2.5 4.02335 0 0
7:15 am 07:15 Cloudy with Rain 37 2.9 37 2.9 100 100 S 9 15 30.06 1018 2 3.21868 0.01 0.254
7:35 am 07:35 Cloudy with Mist and Fog 37 2.8 37 2.8 100 100 SSE 9 15 30.06 1018 2 3.21868 0.01 0.254
7:55 am 07:55 Cloudy with Mist and Fog 37 2.5 37 2.5 100 100 SSE 12 19 30.04 1017 1.25 2.011675 0.01 0.254
8:15 am 08:15 Cloudy with Mist and Fog 37 2.5 37 2.5 100 100 SSE 10 17 30.04 1017 1 1.60934 0 0
8:35 am 08:35 Cloudy with Mist and Fog 37 2.5 37 2.5 100 100 SSE 10 17 30.04 1017 0.75 1.207005 0 0
8:55 am 08:55 Cloudy with Fog 36 2.3 36 2.3 100 100 SSE 8 13 30.03 1017 0.25 0.402335 0 0
9:15 am 09:15 Cloudy with Fog 37 2.5 37 2.5 100 100 SSE 10 17 30.02 1017 0.25 0.402335 0 0
9:35 am 09:35 Cloudy with Fog 37 2.7 37 2.7 100 100 SSE 9 15 30.01 1016 0.25 0.402335 0 0
9:55 am 09:55 Cloudy with Rain 37 2.8 37 2.8 100 100 SSE 10 17 30 1016 0.25 0.402335 0 0
10:15 am 10:15 Cloudy with Fog 37 3 37 3 100 100 SSE 7 11 30 1016 0.25 0.402335 0 0
10:35 am 10:35 Cloudy with Fog 38 3.5 38 3.5 100 100 SSE 10 17 29.97 1015 5 8.0467 0 0
10:55 am 10:55 Cloudy with Fog 39 3.7 39 3.7 100 100 S 7 11 29.96 1015 5 8.0467 0 0
11:15 am 11:15 Cloudy with Fog 40 4.3 40 4.3 100 100 SSE 9 15 29.94 1014 5 8.0467 0 0
11:35 am 11:35 Cloudy with Fog 40 4.6 40 4.6 100 100 SSE 9 15 29.94 1014 0.25 0.402335 0 0
11:55 am 11:55 Cloudy with Mist and Fog 41 5 41 5 100 100 SSE 7 11 29.93 1013 0.75 1.207005 0 0
12:15 pm 12:15 Cloudy with Fog 41 5 41 5 100 100 SSE 8 13 29.92 1013 0.5 0.80467 0 0
12:35 pm 12:35 Cloudy with Fog 41 5.1 41 5.1 100 100 SSE 6 9 29.89 1012 0.25 0.402335 0 0
12:55 pm 12:55 Cloudy with Fog 42 5.4 42 5.4 100 100 SSE 6 9 29.88 1012 0.25 0.402335 0 0
1:15 pm 13:15 Cloudy with Fog 42 5.8 42 5.8 100 100 S 6 9 29.87 1012 0.25 0.402335 0 0
1:35 pm 13:35 Cloudy with Fog 43 6 43 6 100 100 S 8 13 29.85 1011 0.25 0.402335 0 0
1:55 pm 13:55 Cloudy with Fog 43 6.3 43 6.3 100 100 S 9 15 29.83 1010 0.25 0.402335 0 0
2:15 pm 14:15 Cloudy with Fog 44 6.6 44 6.6 100 100 S 9 15 29.82 1010 0.25 0.402335 0 0
2:35 pm 14:35 Cloudy with Fog 44 6.6 44 6.6 100 100 SSE 7 11 29.8 1009 0.25 0.402335 0 0
2:55 pm 14:55 Cloudy with Fog 45 7 45 7 100 100 SSE 7 11 29.78 1008 0.25 0.402335 0 0
3:15 pm 15:15 Cloudy with Fog 45 7.1 45 7.1 100 100 SSE 6 9 29.78 1008 5 8.0467 0 0
3:35 pm 15:35 Cloudy with Fog 46 7.7 46 7.7 100 100 SSE 6 9 29.76 1008 5 8.0467 0 0
3:55 pm 15:55 Cloudy with Fog 47 8.2 47 8.2 100 100 SE 3 6 29.74 1007 5 8.0467 0 0
4:15 pm 16:15 Cloudy with Fog 47 8.2 47 8.2 100 100 ENE 3 6 29.73 1007 0.25 0.402335 0 0
4:35 pm 16:35 Cloudy with Fog 47 8.6 47 8.6 100 100 E 3 6 29.73 1007 0.25 0.402335 0 0
4:55 pm 16:55 Cloudy with Fog 48 9.1 48 9.1 100 100 Calm 29.73 1007 0.25 0.402335 0 0
5:15 pm 17:15 Cloudy with Fog 47 8.1 47 8.1 100 100 ENE 6 9 29.72 1006 0.25 0.402335 0 0
5:35 pm 17:35 Cloudy with Fog 47 8.2 47 8.2 100 100 E 6 9 29.71 1006 0.25 0.402335 0 0
5:55 pm 17:55 Cloudy with Fog 48 9.1 48 9.1 100 100 E 5 7 29.68 1005 0.25 0.402335 0 0
6:15 pm 18:15 Cloudy with Fog 47 8.1 47 8.1 100 100 NE 10 17 29.69 1005 5 8.0467 0 0
6:35 pm 18:35 Cloudy with Snow 46 7.6 46 7.6 100 100 ENE 10 17 29.68 1005 5 8.0467 0 0
6:55 pm 18:55 Cloudy with Light Rain 45 7.2 45 7.2 100 100 NE 10 17 29.67 1005 5 8.0467 0 0
7:15 pm 19:15 Cloudy with Light Rain 44 6.7 44 6.7 100 100 E 8 13 29.67 1005 5 8.0467 0 0
7:35 pm 19:35 Cloudy with Fog 45 7.1 45 7.1 100 100 E 12 19 29.67 1005 5 8.0467 0 0
7:55 pm 19:55 Cloudy with Fog 43 6.1 43 6.1 100 100 E 7 11 29.69 1005 0.25 0.402335 0 0
8:15 pm 20:15 Cloudy with Fog 41 5.2 41 5.2 100 100 SSE 8 13 29.7 1006 0.25 0.402335 0 0
8:35 pm 20:35 Mostly Cloudy 49 9.2 49 9.2 100 100 S 15 24 29.64 1004 10 16.0934 0 0
8:55 pm 20:55 Mostly Cloudy 49 9.2 49 9.2 100 100 SSE 14 22 29.64 1004 10 16.0934 0 0
9:15 pm 21:15 Cloudy 49 9.3 49 9.3 100 100 SSE 10 17 29.64 1004 10 16.0934 0 0
9:35 pm 21:35 Cloudy 49 9.5 49 9.5 100 100 S 12 19 29.64 1004 10 16.0934 0 0
9:55 pm 21:55 Cloudy 50 9.8 50 9.8 100 100 S 12 19 29.63 1004 10 16.0934 0 0
10:15 pm 22:15 Cloudy 48 9.1 48 9.1 100 100 S 8 13 29.63 1003 10 16.0934 0 0
10:35 pm 22:35 Cloudy 48 8.8 48 8.8 100 100 SSE 6 9 29.63 1003 7 11.26538 0 0
10:55 pm 22:55 Cloudy with Mist and Fog 47 8.6 47 8.6 100 100 SSE 9 15 29.63 1003 3 4.82802 0 0
11:15 pm 23:15 Cloudy with Mist and Fog 47 8.3 47 8.3 100 100 SSE 7 11 29.63 1003 2 3.21868 0 0
11:35 pm 23:35 Cloudy with Mist and Fog 48 8.8 48 8.8 100 100 SSE 10 17 29.62 1003 2.5 4.02335 0 0
11:55 pm 23:55 Cloudy with Mist and Fog 48 9.1 48 9.1 100 100 SSE 9 15 29.62 1003 1.25 2.011675 0 0

Powered by AerisWeather